contact:dominique.lefevre@mio.osupytheas.fr, maurice.libes@osupytheas.fr, didier.mallarino@osupytheas.fr
Project:EMSO http://www.emso-fr.org/EMSO-France
Depth: 2436.0 m
Title:EMSO Ligure Ouest : Data MII capteur CSTAR
DateTime,Latitude,Longitude,Instrument_Serial,Reference_Counts,Signal_Counts,Corrected_Signal_raw_counts,Calculated_Beam_c_inverse_meters,Internal_thermistor_counts
DateTime,Latitude,Longitude,Instrument_Serial,Reference_Counts,Signal_Counts,Corrected_Signal_raw_counts,Calculated_Beam_c_inverse_meters,Internal_thermistor_counts
2023-11-12T00:01:44,42.805,6.029,CST-1368DR,4112,4376,11277,01.302,553
2023-11-12T00:04:46,42.805,6.029,CST-1368DR,4112,4376,11277,01.302,553
2023-11-12T00:07:47,42.805,6.029,CST-1368DR,4112,4375,11275,01.303,553
2023-11-12T00:10:49,42.805,6.029,CST-1368DR,4112,4379,11285,01.299,553
2023-11-12T00:13:50,42.805,6.029,CST-1368DR,4111,4376,11279,01.301,552
2023-11-12T00:16:52,42.805,6.029,CST-1368DR,4112,4376,11278,01.302,553
2023-11-12T00:19:53,42.805,6.029,CST-1368DR,4112,4376,11278,01.302,553
2023-11-12T00:22:55,42.805,6.029,CST-1368DR,4112,4376,11277,01.302,553
2023-11-12T00:25:57,42.805,6.029,CST-1368DR,4112,4375,11276,01.302,553
2023-11-12T00:28:58,42.805,6.029,CST-1368DR,4112,4375,11276,01.302,553
2023-11-12T00:32:00,42.805,6.029,CST-1368DR,4112,4376,11278,01.302,553
2023-11-12T00:35:01,42.805,6.029,CST-1368DR,4112,4375,11275,01.303,553
2023-11-12T00:38:03,42.805,6.029,CST-1368DR,4112,4376,11279,01.301,553
2023-11-12T00:41:05,42.805,6.029,CST-1368DR,4112,4376,11277,01.302,553
2023-11-12T00:44:06,42.805,6.029,CST-1368DR,4112,4374,11273,01.304,553
2023-11-12T00:47:08,42.805,6.029,CST-1368DR,4112,4376,11277,01.302,553
2023-11-12T00:50:09,42.805,6.029,CST-1368DR,4112,4376,11277,01.302,553
2023-11-12T00:53:11,42.805,6.029,CST-1368DR,4112,4375,11276,01.302,553
2023-11-12T00:56:12,42.805,6.029,CST-1368DR,4112,4376,11277,01.302,553
2023-11-12T00:59:14,42.805,6.029,CST-1368DR,4112,4376,11277,01.302,553
2023-11-12T01:02:16,42.805,6.029,CST-1368DR,4112,4375,11276,01.302,553
2023-11-12T01:05:17,42.805,6.029,CST-1368DR,4112,4375,11274,01.303,552
2023-11-12T01:08:19,42.805,6.029,CST-1368DR,4112,4374,11273,01.304,553
2023-11-12T01:11:20,42.805,6.029,CST-1368DR,4111,4374,11274,01.303,553
2023-11-12T01:14:22,42.805,6.029,CST-1368DR,4111,4373,11272,01.304,553
2023-11-12T01:17:23,42.805,6.029,CST-1368DR,4111,4373,11272,01.304,553
2023-11-12T01:20:25,42.805,6.029,CST-1368DR,4112,4375,11276,01.302,553
2023-11-12T01:23:27,42.805,6.029,CST-1368DR,4112,4374,11274,01.303,553
2023-11-12T01:26:28,42.805,6.029,CST-1368DR,4112,4373,11270,01.305,553
2023-11-12T01:29:30,42.805,6.029,CST-1368DR,4112,4374,11272,01.304,553
2023-11-12T01:32:31,42.805,6.029,CST-1368DR,4112,4375,11276,01.302,553
2023-11-12T01:35:33,42.805,6.029,CST-1368DR,4112,4375,11276,01.302,553
2023-11-12T01:38:34,42.805,6.029,CST-1368DR,4112,4376,11277,01.302,553
2023-11-12T01:41:36,42.805,6.029,CST-1368DR,4111,4372,11270,01.305,553
2023-11-12T01:44:38,42.805,6.029,CST-1368DR,4112,4372,11268,01.305,553
2023-11-12T01:47:39,42.805,6.029,CST-1368DR,4111,4375,11277,01.302,553
2023-11-12T01:50:41,42.805,6.029,CST-1368DR,4112,4375,11274,01.303,553
2023-11-12T01:53:42,42.805,6.029,CST-1368DR,4112,4374,11274,01.303,553
2023-11-12T01:56:44,42.805,6.029,CST-1368DR,4112,4373,11270,01.305,553
2023-11-12T01:59:46,42.805,6.029,CST-1368DR,4111,4375,11278,01.302,553
2023-11-12T02:02:47,42.805,6.029,CST-1368DR,4112,4373,11270,01.305,553
2023-11-12T02:05:49,42.805,6.029,CST-1368DR,4112,4373,11270,01.305,553
2023-11-12T02:08:50,42.805,6.029,CST-1368DR,4111,4374,11274,01.303,553
2023-11-12T02:11:52,42.805,6.029,CST-1368DR,4112,4374,11272,01.304,553
2023-11-12T02:14:53,42.805,6.029,CST-1368DR,4112,4373,11270,01.305,553
2023-11-12T02:17:55,42.805,6.029,CST-1368DR,4111,4374,11276,01.302,553
2023-11-12T02:20:57,42.805,6.029,CST-1368DR,4111,4374,11276,01.302,553
2023-11-12T02:23:58,42.805,6.029,CST-1368DR,4112,4375,11276,01.302,553
2023-11-12T02:27:00,42.805,6.029,CST-1368DR,4112,4375,11275,01.303,553
2023-11-12T02:30:01,42.805,6.029,CST-1368DR,4112,4376,11277,01.302,553
2023-11-12T02:33:03,42.805,6.029,CST-1368DR,4111,4375,11277,01.302,553
2023-11-12T02:36:05,42.805,6.029,CST-1368DR,4112,4375,11275,01.303,553
2023-11-12T02:39:06,42.805,6.029,CST-1368DR,4111,4375,11278,01.302,553
2023-11-12T02:42:08,42.805,6.029,CST-1368DR,4111,4376,11280,01.301,553
2023-11-12T02:45:09,42.805,6.029,CST-1368DR,4111,4375,11278,01.302,553
2023-11-12T02:48:11,42.805,6.029,CST-1368DR,4112,4375,11276,01.302,553
2023-11-12T02:51:12,42.805,6.029,CST-1368DR,4111,4375,11277,01.302,553
2023-11-12T02:54:14,42.805,6.029,CST-1368DR,4111,4374,11276,01.302,553
2023-11-12T02:57:16,42.805,6.029,CST-1368DR,4111,4375,11279,01.301,552
2023-11-12T03:00:17,42.805,6.029,CST-1368DR,4112,4377,11279,01.301,553
2023-11-12T03:03:19,42.805,6.029,CST-1368DR,4111,4374,11275,01.303,553
2023-11-12T03:06:20,42.805,6.029,CST-1368DR,4112,4375,11276,01.302,553
2023-11-12T03:09:22,42.805,6.029,CST-1368DR,4111,4375,11278,01.302,553
2023-11-12T03:12:23,42.805,6.029,CST-1368DR,4111,4375,11277,01.302,553
2023-11-12T03:15:25,42.805,6.029,CST-1368DR,4111,4375,11277,01.302,553
2023-11-12T03:18:27,42.805,6.029,CST-1368DR,4111,4376,11279,01.301,553
2023-11-12T03:21:28,42.805,6.029,CST-1368DR,4111,4374,11276,01.302,553
2023-11-12T03:24:30,42.805,6.029,CST-1368DR,4111,4374,11276,01.302,553
2023-11-12T03:27:31,42.805,6.029,CST-1368DR,4112,4375,11274,01.303,553
2023-11-12T03:30:33,42.805,6.029,CST-1368DR,4111,4374,11276,01.302,553
2023-11-12T03:33:35,42.805,6.029,CST-1368DR,4111,4375,11278,01.302,553
2023-11-12T03:36:36,42.805,6.029,CST-1368DR,4111,4374,11276,01.302,553
2023-11-12T03:39:38,42.805,6.029,CST-1368DR,4111,4373,11273,01.304,553
2023-11-12T03:42:39,42.805,6.029,CST-1368DR,4111,4373,11272,01.304,552
2023-11-12T03:45:41,42.805,6.029,CST-1368DR,4111,4372,11270,01.305,553
2023-11-12T03:48:42,42.805,6.029,CST-1368DR,4111,4372,11271,01.304,553
2023-11-12T03:51:44,42.805,6.029,CST-1368DR,4111,4372,11271,01.304,553
2023-11-12T03:54:46,42.805,6.029,CST-1368DR,4111,4372,11270,01.305,552
2023-11-12T03:57:47,42.805,6.029,CST-1368DR,4111,4374,11275,01.303,553
2023-11-12T04:00:49,42.805,6.029,CST-1368DR,4111,4376,11279,01.301,553
2023-11-12T04:03:50,42.805,6.029,CST-1368DR,4111,4375,11278,01.302,553
2023-11-12T04:06:52,42.805,6.029,CST-1368DR,4111,4373,11273,01.304,553
2023-11-12T04:09:53,42.805,6.029,CST-1368DR,4111,4373,11272,01.304,553
2023-11-12T04:12:55,42.805,6.029,CST-1368DR,4111,4374,11276,01.302,553
2023-11-12T04:15:57,42.805,6.029,CST-1368DR,4111,4374,11275,01.303,553
2023-11-12T04:18:58,42.805,6.029,CST-1368DR,4111,4374,11276,01.302,553
2023-11-12T04:22:00,42.805,6.029,CST-1368DR,4111,4375,11277,01.302,553
2023-11-12T04:25:01,42.805,6.029,CST-1368DR,4111,4375,11277,01.302,553
2023-11-12T04:28:03,42.805,6.029,CST-1368DR,4111,4375,11278,01.302,553
2023-11-12T04:31:05,42.805,6.029,CST-1368DR,4111,4373,11272,01.304,553
2023-11-12T04:34:06,42.805,6.029,CST-1368DR,4111,4375,11277,01.302,553
2023-11-12T04:37:08,42.805,6.029,CST-1368DR,4111,4374,11276,01.302,553
2023-11-12T04:40:09,42.805,6.029,CST-1368DR,4111,4375,11278,01.302,553
2023-11-12T04:43:11,42.805,6.029,CST-1368DR,4111,4375,11277,01.302,553
2023-11-12T04:46:12,42.805,6.029,CST-1368DR,4111,4374,11274,01.303,553
2023-11-12T04:49:14,42.805,6.029,CST-1368DR,4111,4375,11277,01.302,553
2023-11-12T04:52:16,42.805,6.029,CST-1368DR,4111,4370,11266,01.306,553
2023-11-12T04:55:17,42.805,6.029,CST-1368DR,4111,4372,11270,01.305,553
2023-11-12T04:58:19,42.805,6.029,CST-1368DR,4111,4374,11275,01.303,553
2023-11-12T05:01:20,42.805,6.029,CST-1368DR,4111,4372,11270,01.305,553
2023-11-12T05:04:22,42.805,6.029,CST-1368DR,4111,4372,11269,01.305,553
2023-11-12T05:07:23,42.805,6.029,CST-1368DR,4111,4371,11267,01.306,553
2023-11-12T05:10:25,42.805,6.029,CST-1368DR,4111,4372,11270,01.305,553
2023-11-12T05:13:27,42.805,6.029,CST-1368DR,4111,4371,11268,01.305,553
2023-11-12T05:16:28,42.805,6.029,CST-1368DR,4111,4372,11271,01.304,553
2023-11-12T05:19:30,42.805,6.029,CST-1368DR,4112,4372,11268,01.305,553
2023-11-12T05:22:31,42.805,6.029,CST-1368DR,4111,4373,11272,01.304,553
2023-11-12T05:25:33,42.805,6.029,CST-1368DR,4111,4372,11269,01.305,553
2023-11-12T05:28:35,42.805,6.029,CST-1368DR,4111,4374,11276,01.302,553
2023-11-12T05:31:36,42.805,6.029,CST-1368DR,4111,4375,11278,01.302,553
2023-11-12T05:34:38,42.805,6.029,CST-1368DR,4112,4374,11272,01.304,552
2023-11-12T05:37:39,42.805,6.029,CST-1368DR,4111,4374,11274,01.303,553
2023-11-12T05:40:41,42.805,6.029,CST-1368DR,4111,4373,11272,01.304,553
2023-11-12T05:43:43,42.805,6.029,CST-1368DR,4111,4373,11272,01.304,552
2023-11-12T05:46:44,42.805,6.029,CST-1368DR,4111,4373,11273,01.304,553
2023-11-12T05:49:46,42.805,6.029,CST-1368DR,4111,4372,11270,01.305,553
2023-11-12T05:52:47,42.805,6.029,CST-1368DR,4111,4371,11269,01.305,552
2023-11-12T05:55:49,42.805,6.029,CST-1368DR,4111,4371,11269,01.305,553
2023-11-12T05:58:50,42.805,6.029,CST-1368DR,4111,4373,11272,01.304,553
2023-11-12T06:01:52,42.805,6.029,CST-1368DR,4111,4368,11259,01.309,553
2023-11-12T06:04:54,42.805,6.029,CST-1368DR,4111,4367,11258,01.309,553
2023-11-12T06:07:55,42.805,6.029,CST-1368DR,4111,4366,11256,01.310,553
2023-11-12T06:10:57,42.805,6.029,CST-1368DR,4111,4368,11261,01.308,553
2023-11-12T06:13:58,42.805,6.029,CST-1368DR,4111,4367,11257,01.309,552
2023-11-12T06:17:00,42.805,6.029,CST-1368DR,4111,4367,11257,01.309,553
2023-11-12T06:20:01,42.805,6.029,CST-1368DR,4111,4366,11254,01.310,553
2023-11-12T06:23:03,42.805,6.029,CST-1368DR,4111,4365,11253,01.311,553
2023-11-12T06:26:05,42.805,6.029,CST-1368DR,4111,4368,11259,01.309,553
2023-11-12T06:29:06,42.805,6.029,CST-1368DR,4111,4367,11258,01.309,553
2023-11-12T06:32:08,42.805,6.029,CST-1368DR,4111,4368,11259,01.309,553
2023-11-12T06:35:09,42.805,6.029,CST-1368DR,4111,4368,11260,01.308,553
2023-11-12T06:38:11,42.805,6.029,CST-1368DR,4111,4367,11257,01.309,553
2023-11-12T06:41:13,42.805,6.029,CST-1368DR,4111,4366,11255,01.310,553
2023-11-12T06:44:14,42.805,6.029,CST-1368DR,4111,4369,11262,01.307,553
2023-11-12T06:47:16,42.805,6.029,CST-1368DR,4111,4366,11254,01.310,553
2023-11-12T06:50:17,42.805,6.029,CST-1368DR,4111,4366,11254,01.310,553
2023-11-12T06:53:19,42.805,6.029,CST-1368DR,4111,4367,11258,01.309,553
2023-11-12T06:56:20,42.805,6.029,CST-1368DR,4111,4367,11257,01.309,553
2023-11-12T06:59:22,42.805,6.029,CST-1368DR,4111,4366,11256,01.310,553
2023-11-12T07:02:24,42.805,6.029,CST-1368DR,4111,4366,11256,01.310,553
2023-11-12T07:05:25,42.805,6.029,CST-1368DR,4111,4368,11259,01.309,553
2023-11-12T07:08:27,42.805,6.029,CST-1368DR,4111,4372,11271,01.304,553
2023-11-12T07:11:28,42.805,6.029,CST-1368DR,4111,4371,11267,01.306,553
2023-11-12T07:14:30,42.805,6.029,CST-1368DR,4111,4366,11256,01.310,553
2023-11-12T07:17:31,42.805,6.029,CST-1368DR,4111,4368,11259,01.309,553
2023-11-12T07:20:33,42.805,6.029,CST-1368DR,4111,4367,11257,01.309,553
2023-11-12T07:23:35,42.805,6.029,CST-1368DR,4111,4367,11257,01.309,553
2023-11-12T07:26:36,42.805,6.029,CST-1368DR,4111,4368,11259,01.309,553
2023-11-12T07:29:38,42.805,6.029,CST-1368DR,4111,4367,11258,01.309,553
2023-11-12T07:32:40,42.805,6.029,CST-1368DR,4111,4367,11257,01.309,553
2023-11-12T07:35:41,42.805,6.029,CST-1368DR,4111,4366,11254,01.310,553
2023-11-12T07:38:43,42.805,6.029,CST-1368DR,4111,4366,11255,01.310,552
2023-11-12T07:41:44,42.805,6.029,CST-1368DR,4111,4369,11261,01.308,552
2023-11-12T07:44:46,42.805,6.029,CST-1368DR,4111,4367,11257,01.309,553
2023-11-12T07:47:47,42.805,6.029,CST-1368DR,4111,4368,11260,01.308,553
2023-11-12T07:50:49,42.805,6.029,CST-1368DR,4111,4368,11259,01.309,553
2023-11-12T07:53:51,42.805,6.029,CST-1368DR,4111,4367,11258,01.309,553
2023-11-12T07:56:52,42.805,6.029,CST-1368DR,4111,4368,11259,01.309,553
2023-11-12T07:59:54,42.805,6.029,CST-1368DR,4111,4367,11257,01.309,553
2023-11-12T08:02:55,42.805,6.029,CST-1368DR,4111,4366,11255,01.310,553
2023-11-12T08:05:57,42.805,6.029,CST-1368DR,4111,4368,11259,01.309,553
2023-11-12T08:08:58,42.805,6.029,CST-1368DR,4111,4366,11255,01.310,553
2023-11-12T08:12:00,42.805,6.029,CST-1368DR,4111,4367,11258,01.309,553
2023-11-12T08:15:02,42.805,6.029,CST-1368DR,4111,4367,11257,01.309,553
2023-11-12T08:18:03,42.805,6.029,CST-1368DR,4111,4368,11261,01.308,553
2023-11-12T08:21:05,42.805,6.029,CST-1368DR,4111,4366,11256,01.310,553
2023-11-12T08:24:06,42.805,6.029,CST-1368DR,4111,4367,11257,01.309,553
2023-11-12T08:27:08,42.805,6.029,CST-1368DR,4111,4367,11257,01.309,553
2023-11-12T08:30:09,42.805,6.029,CST-1368DR,4111,4366,11256,01.310,553
2023-11-12T08:33:11,42.805,6.029,CST-1368DR,4111,4366,11255,01.310,553
2023-11-12T08:36:13,42.805,6.029,CST-1368DR,4111,4366,11255,01.310,553
2023-11-12T08:39:14,42.805,6.029,CST-1368DR,4111,4367,11257,01.309,553
2023-11-12T08:42:16,42.805,6.029,CST-1368DR,4111,4367,11257,01.309,553
2023-11-12T08:45:17,42.805,6.029,CST-1368DR,4111,4367,11258,01.309,553
2023-11-12T08:48:19,42.805,6.029,CST-1368DR,4111,4366,11254,01.310,552
2023-11-12T08:51:21,42.805,6.029,CST-1368DR,4111,4368,11259,01.309,553
2023-11-12T08:54:22,42.805,6.029,CST-1368DR,4111,4367,11257,01.309,552
2023-11-12T08:57:24,42.805,6.029,CST-1368DR,4111,4366,11254,01.310,553
2023-11-12T09:00:25,42.805,6.029,CST-1368DR,4111,4364,11250,01.312,553
2023-11-12T09:03:27,42.805,6.029,CST-1368DR,4111,4367,11257,01.309,553
2023-11-12T09:06:28,42.805,6.029,CST-1368DR,4111,4368,11259,01.309,553
2023-11-12T09:09:30,42.805,6.029,CST-1368DR,4111,4366,11256,01.310,553
2023-11-12T09:12:32,42.805,6.029,CST-1368DR,4111,4365,11252,01.311,553
2023-11-12T09:15:33,42.805,6.029,CST-1368DR,4111,4366,11254,01.310,553
2023-11-12T09:18:35,42.805,6.029,CST-1368DR,4111,4367,11258,01.309,553
2023-11-12T09:21:36,42.805,6.029,CST-1368DR,4111,4366,11254,01.310,553
2023-11-12T09:24:38,42.805,6.029,CST-1368DR,4111,4364,11250,01.312,553
2023-11-12T09:27:39,42.805,6.029,CST-1368DR,4111,4366,11256,01.310,553
2023-11-12T09:30:43,42.805,6.029,CST-1368DR,4111,4366,11254,01.310,553
2023-11-12T09:33:44,42.805,6.029,CST-1368DR,4111,4364,11250,01.312,553
2023-11-12T09:36:46,42.805,6.029,CST-1368DR,4111,4368,11259,01.309,553
2023-11-12T09:39:47,42.805,6.029,CST-1368DR,4111,4367,11257,01.309,553
2023-11-12T09:42:49,42.805,6.029,CST-1368DR,4111,4368,11259,01.309,553
2023-11-12T09:45:51,42.805,6.029,CST-1368DR,4111,4368,11260,01.308,553
2023-11-12T09:48:52,42.805,6.029,CST-1368DR,4111,4368,11260,01.308,553
2023-11-12T09:51:54,42.805,6.029,CST-1368DR,4111,4366,11254,01.310,553
2023-11-12T09:54:55,42.805,6.029,CST-1368DR,4111,4367,11258,01.309,553
2023-11-12T09:57:57,42.805,6.029,CST-1368DR,4111,4366,11256,01.310,553
2023-11-12T10:00:58,42.805,6.029,CST-1368DR,4111,4366,11255,01.310,553
2023-11-12T10:04:00,42.805,6.029,CST-1368DR,4111,4365,11253,01.311,553
2023-11-12T10:07:02,42.805,6.029,CST-1368DR,4111,4366,11256,01.310,552
2023-11-12T10:10:03,42.805,6.029,CST-1368DR,4111,4369,11261,01.308,553
2023-11-12T10:13:05,42.805,6.029,CST-1368DR,4111,4365,11251,01.311,553
2023-11-12T10:16:06,42.805,6.029,CST-1368DR,4111,4365,11252,01.311,553
2023-11-12T10:19:08,42.805,6.029,CST-1368DR,4111,4365,11251,01.311,553
2023-11-12T10:22:09,42.805,6.029,CST-1368DR,4111,4368,11259,01.309,552
2023-11-12T10:25:11,42.805,6.029,CST-1368DR,4111,4371,11269,01.305,553
2023-11-12T10:28:13,42.805,6.029,CST-1368DR,4111,4368,11260,01.308,553
2023-11-12T10:31:14,42.805,6.029,CST-1368DR,4111,4366,11254,01.310,553
2023-11-12T10:34:16,42.805,6.029,CST-1368DR,4111,4366,11256,01.310,553
2023-11-12T10:37:17,42.805,6.029,CST-1368DR,4111,4363,11246,01.313,553
2023-11-12T10:40:19,42.805,6.029,CST-1368DR,4111,4367,11258,01.309,553
2023-11-12T10:43:21,42.805,6.029,CST-1368DR,4111,4367,11257,01.309,553
2023-11-12T10:46:22,42.805,6.029,CST-1368DR,4111,4366,11254,01.310,553
2023-11-12T10:49:24,42.805,6.029,CST-1368DR,4111,4368,11260,01.308,553
2023-11-12T10:52:25,42.805,6.029,CST-1368DR,4111,4366,11256,01.310,553
2023-11-12T10:55:27,42.805,6.029,CST-1368DR,4111,4365,11252,01.311,553
2023-11-12T10:58:28,42.805,6.029,CST-1368DR,4111,4367,11257,01.309,553
2023-11-12T11:01:30,42.805,6.029,CST-1368DR,4111,4369,11263,01.307,553
2023-11-12T11:04:32,42.805,6.029,CST-1368DR,4111,4369,11262,01.307,553
2023-11-12T11:07:33,42.805,6.029,CST-1368DR,4111,4373,11272,01.304,553
2023-11-12T11:10:35,42.805,6.029,CST-1368DR,4111,4366,11254,01.310,553
2023-11-12T11:13:36,42.805,6.029,CST-1368DR,4111,4370,11264,01.307,552
2023-11-12T11:16:38,42.805,6.029,CST-1368DR,4111,4369,11261,01.308,553
2023-11-12T11:19:40,42.805,6.029,CST-1368DR,4111,4365,11253,01.311,553
2023-11-12T11:22:41,42.805,6.029,CST-1368DR,4111,4366,11254,01.310,552
2023-11-12T11:25:43,42.805,6.029,CST-1368DR,4111,4363,11247,01.313,553
2023-11-12T11:28:44,42.805,6.029,CST-1368DR,4111,4364,11249,01.312,552
2023-11-12T11:31:46,42.805,6.029,CST-1368DR,4111,4369,11262,01.307,553
2023-11-12T11:34:47,42.805,6.029,CST-1368DR,4111,4365,11253,01.311,553
2023-11-12T11:37:49,42.805,6.029,CST-1368DR,4111,4370,11265,01.306,553
2023-11-12T11:40:51,42.805,6.029,CST-1368DR,4111,4365,11252,01.311,553
2023-11-12T11:43:52,42.805,6.029,CST-1368DR,4111,4369,11263,01.307,553
2023-11-12T11:46:54,42.805,6.029,CST-1368DR,4111,4368,11259,01.309,553
2023-11-12T11:49:55,42.805,6.029,CST-1368DR,4111,4369,11263,01.307,553
2023-11-12T11:52:57,42.805,6.029,CST-1368DR,4111,4361,11243,01.314,553
2023-11-12T11:55:59,42.805,6.029,CST-1368DR,4111,4368,11261,01.308,552
2023-11-12T11:59:00,42.805,6.029,CST-1368DR,4111,4368,11259,01.309,553
2023-11-12T12:02:02,42.805,6.029,CST-1368DR,4111,4369,11262,01.307,553
2023-11-12T12:05:03,42.805,6.029,CST-1368DR,4111,4362,11245,01.313,553
2023-11-12T12:08:05,42.805,6.029,CST-1368DR,4111,4368,11259,01.309,553
2023-11-12T12:11:06,42.805,6.029,CST-1368DR,4111,4363,11247,01.313,553
2023-11-12T12:14:08,42.805,6.029,CST-1368DR,4111,4360,11240,01.315,553
2023-11-12T12:17:10,42.805,6.029,CST-1368DR,4111,4366,11255,01.310,553
2023-11-12T12:20:11,42.805,6.029,CST-1368DR,4111,4367,11257,01.309,553
2023-11-12T12:23:13,42.805,6.029,CST-1368DR,4111,4368,11261,01.308,553
2023-11-12T12:26:14,42.805,6.029,CST-1368DR,4111,4372,11270,01.305,553
2023-11-12T12:29:16,42.805,6.029,CST-1368DR,4111,4368,11261,01.308,553
2023-11-12T12:32:17,42.805,6.029,CST-1368DR,4111,4367,11258,01.309,553
2023-11-12T12:35:19,42.805,6.029,CST-1368DR,4111,4369,11263,01.307,553
2023-11-12T12:38:21,42.805,6.029,CST-1368DR,4111,4370,11264,01.307,553
2023-11-12T12:41:22,42.805,6.029,CST-1368DR,4111,4366,11256,01.310,553
2023-11-12T12:44:24,42.805,6.029,CST-1368DR,4111,4370,11264,01.307,553
2023-11-12T12:47:25,42.805,6.029,CST-1368DR,4111,4368,11260,01.308,553
2023-11-12T12:50:27,42.805,6.029,CST-1368DR,4111,4369,11263,01.307,553
2023-11-12T12:53:29,42.805,6.029,CST-1368DR,4111,4367,11257,01.309,553
2023-11-12T12:56:30,42.805,6.029,CST-1368DR,4111,4374,11274,01.303,553
2023-11-12T12:59:32,42.805,6.029,CST-1368DR,4111,4368,11259,01.309,553
2023-11-12T13:02:33,42.805,6.029,CST-1368DR,4111,4367,11258,01.309,553
2023-11-12T13:05:35,42.805,6.029,CST-1368DR,4111,4369,11263,01.307,552
2023-11-12T13:08:36,42.805,6.029,CST-1368DR,4111,4365,11253,01.311,553
2023-11-12T13:11:38,42.805,6.029,CST-1368DR,4111,4369,11263,01.307,553
2023-11-12T13:14:40,42.805,6.029,CST-1368DR,4111,4368,11259,01.309,553
2023-11-12T13:17:41,42.805,6.029,CST-1368DR,4111,4368,11259,01.309,553
2023-11-12T13:20:43,42.805,6.029,CST-1368DR,4111,4367,11257,01.309,553
2023-11-12T13:23:44,42.805,6.029,CST-1368DR,4111,4368,11259,01.309,553
2023-11-12T13:26:46,42.805,6.029,CST-1368DR,4111,4368,11259,01.309,553
2023-11-12T13:29:47,42.805,6.029,CST-1368DR,4111,4368,11259,01.309,553
2023-11-12T13:32:50,42.805,6.029,CST-1368DR,4111,4368,11260,01.308,553
2023-11-12T13:35:52,42.805,6.029,CST-1368DR,4111,4368,11261,01.308,553
2023-11-12T13:38:53,42.805,6.029,CST-1368DR,4111,4369,11263,01.307,553
2023-11-12T13:41:55,42.805,6.029,CST-1368DR,4111,4370,11264,01.307,553
2023-11-12T13:44:57,42.805,6.029,CST-1368DR,4111,4367,11258,01.309,553
2023-11-12T13:47:58,42.805,6.029,CST-1368DR,4111,4369,11262,01.307,553
2023-11-12T13:51:00,42.805,6.029,CST-1368DR,4111,4370,11264,01.307,553
2023-11-12T13:54:01,42.805,6.029,CST-1368DR,4111,4375,11278,01.302,553
2023-11-12T13:57:03,42.805,6.029,CST-1368DR,4111,4369,11261,01.308,553
2023-11-12T14:00:05,42.805,6.029,CST-1368DR,4111,4369,11261,01.308,553
2023-11-12T14:03:06,42.805,6.029,CST-1368DR,4111,4369,11261,01.308,553
2023-11-12T14:06:08,42.805,6.029,CST-1368DR,4111,4369,11263,01.307,553
2023-11-12T14:09:09,42.805,6.029,CST-1368DR,4111,4367,11257,01.309,553
2023-11-12T14:12:11,42.805,6.029,CST-1368DR,4111,4366,11254,01.310,552
2023-11-12T14:20:07,42.805,6.029,CST-1368DR,4111,4368,11259,01.309,553
2023-11-12T14:23:08,42.805,6.029,CST-1368DR,4111,4367,11258,01.309,553
2023-11-12T14:26:10,42.805,6.029,CST-1368DR,4111,4368,11259,01.309,553
2023-11-12T14:29:11,42.805,6.029,CST-1368DR,4111,4375,11279,01.301,553
2023-11-12T14:32:13,42.805,6.029,CST-1368DR,4111,4368,11260,01.308,553
2023-11-12T14:35:15,42.805,6.029,CST-1368DR,4111,4367,11258,01.309,553
2023-11-12T14:38:16,42.805,6.029,CST-1368DR,4111,4367,11258,01.309,553
2023-11-12T14:41:18,42.805,6.029,CST-1368DR,4111,4368,11259,01.309,552
2023-11-12T14:44:19,42.805,6.029,CST-1368DR,4111,4367,11258,01.309,553
2023-11-12T14:47:21,42.805,6.029,CST-1368DR,4111,4368,11259,01.309,553
2023-11-12T14:50:22,42.805,6.029,CST-1368DR,4111,4374,11274,01.303,553
2023-11-12T14:53:24,42.805,6.029,CST-1368DR,4111,4368,11261,01.308,553
2023-11-12T14:56:26,42.805,6.029,CST-1368DR,4111,4367,11258,01.309,553
2023-11-12T14:59:27,42.805,6.029,CST-1368DR,4111,4368,11259,01.309,553
2023-11-12T15:02:29,42.805,6.029,CST-1368DR,4111,4367,11258,01.309,553
2023-11-12T15:05:30,42.805,6.029,CST-1368DR,4111,4367,11258,01.309,553
2023-11-12T15:08:32,42.805,6.029,CST-1368DR,4111,4368,11259,01.309,553
2023-11-12T15:11:33,42.805,6.029,CST-1368DR,4110,4367,11260,01.308,553
2023-11-12T15:14:35,42.805,6.029,CST-1368DR,4111,4366,11256,01.310,553
2023-11-12T15:17:37,42.805,6.029,CST-1368DR,4111,4367,11258,01.309,552
2023-11-12T15:20:38,42.805,6.029,CST-1368DR,4111,4368,11259,01.309,553
2023-11-12T15:23:40,42.805,6.029,CST-1368DR,4111,4368,11259,01.309,553
2023-11-12T15:26:41,42.805,6.029,CST-1368DR,4111,4367,11257,01.309,553
2023-11-12T15:29:43,42.805,6.029,CST-1368DR,4111,4368,11261,01.308,553
2023-11-12T15:32:46,42.805,6.029,CST-1368DR,4111,4367,11257,01.309,553
2023-11-12T15:35:47,42.805,6.029,CST-1368DR,4111,4367,11258,01.309,553
2023-11-12T15:38:49,42.805,6.029,CST-1368DR,4111,4367,11258,01.309,553
2023-11-12T15:41:50,42.805,6.029,CST-1368DR,4111,4367,11258,01.309,553
2023-11-12T15:44:52,42.805,6.029,CST-1368DR,4111,4367,11258,01.309,552
2023-11-12T15:47:53,42.805,6.029,CST-1368DR,4111,4367,11258,01.309,553
2023-11-12T15:50:55,42.805,6.029,CST-1368DR,4111,4366,11256,01.310,553
2023-11-12T15:53:57,42.805,6.029,CST-1368DR,4111,4366,11254,01.310,552
2023-11-12T15:56:58,42.805,6.029,CST-1368DR,4111,4365,11252,01.311,553
2023-11-12T16:00:00,42.805,6.029,CST-1368DR,4111,4365,11252,01.311,553
2023-11-12T16:03:01,42.805,6.029,CST-1368DR,4111,4366,11254,01.310,553
2023-11-12T16:06:03,42.805,6.029,CST-1368DR,4111,4365,11252,01.311,553
2023-11-12T16:09:05,42.805,6.029,CST-1368DR,4111,4366,11255,01.310,553
2023-11-12T16:12:06,42.805,6.029,CST-1368DR,4111,4366,11254,01.310,553
2023-11-12T16:15:08,42.805,6.029,CST-1368DR,4111,4366,11254,01.310,553
2023-11-12T16:18:09,42.805,6.029,CST-1368DR,4111,4367,11258,01.309,553
2023-11-12T16:21:11,42.805,6.029,CST-1368DR,4111,4368,11259,01.309,553
2023-11-12T16:24:12,42.805,6.029,CST-1368DR,4111,4367,11258,01.309,553
2023-11-12T16:27:14,42.805,6.029,CST-1368DR,4111,4367,11258,01.309,553
2023-11-12T16:30:16,42.805,6.029,CST-1368DR,4111,4367,11257,01.309,553
2023-11-12T16:33:17,42.805,6.029,CST-1368DR,4111,4367,11258,01.309,553
2023-11-12T16:36:19,42.805,6.029,CST-1368DR,4111,4366,11255,01.310,553
2023-11-12T16:39:20,42.805,6.029,CST-1368DR,4111,4367,11257,01.309,553
2023-11-12T16:42:22,42.805,6.029,CST-1368DR,4111,4365,11253,01.311,553